Torna al catalogo

GLOBALSTAR M046

AttivoComunicazioniLEO
NORAD 25651·PAYLOAD·🇺🇸 United States

Lanciato Mar 15, 1999 da Baikonur Cosmodrome

Loading…

Prossimi Passaggi (prossime 24 ore)

TLE

AggiornatoSource: Space-Track

Epoca: Sep 14, 2026, 11:25 UTC

1 25651U 99012C   26257.47618046 -.00000132  00000-0 -48199-3 0  9990
2 25651  52.0049  69.4650 0002717  82.2948 293.8479 12.09427273238632

Traccia GLOBALSTAR M046 in tempo reale con AllMySat

Download on the App Store